sat.trackr.live / text

‹ back to catalog

STARLINK-35627

NORAD 66172 · 2025-240AC

PAYLOAD ACTIVE UNKNOWN

§ Identity

Operator
Country
US
Launch date
2025-10-25
Launch site
AFWTR
Launch vehicle
Mass (kg)
RCS (m²)

Purposes: comms

External: N2YO · Heavens-Above · Gunter

§ Orbital elements

Epoch: 2026-09-20T23:14:01.080384Z

Period
93.85 min
Inclination
53.1566°
Eccentricity
0.0001381
Mean motion
15.34395123 rev/d
Perigee alt
461.8 km
Apogee alt
463.7 km
Semi-major
6,840.9 km
B*
1.8855e-4
RAAN
233.8265°
Arg perigee
92.7230°
Mean anomaly
267.3931°
Rev number
5,191

§ Raw data

STARLINK-356271 66172U 25240AC  26263.96806806  .00005998  00000+0  18855-3 0  99972 66172  53.1566 233.8265 0001381  92.7230 267.3931 15.34395123 51918

JSON: /api/v1/satellites/66172 · /tle

For live sub-satellite position, see the globe view (requires WebGL).

§ Visibility from observer

Set your observer location to see the next 7 days of passes ≥ 10°. The values pass through the URL so the page stays shareable.

No JS? Fill the form by hand. The geolocation button needs JavaScript.